Location: Peach Mountain Observatory
(42.3967°N, 83.9367°W)
Time: 20:48:55
(UTC-05:00)

S-56A Canister/Altair - Pass Details

Date: 28 January 2020
Orbit: 633 x 2499 km, 38.9° (Epoch: 21 February)

Event Time Altitude Azimuth Distance (km) Brightness Sun altitude
Rises 00:35:15 0° 274° (W) 3,172 - -65.8°
Reaches altitude 10° 00:38:04 10° 263° (W) 2,113 - -65.8°
Maximum altitude 00:41:59 27° 205° (SSW) 1,212 - -65.9°
Drops below altitude 10° 00:45:46 10° 146° (SE) 2,024 - -65.9°
Sets 00:48:24 0° 134° (SE) 3,009 - -65.9°
